| time (UTC) | temp F | wind direction | speed MPH | gust MPH | rain 1hr in | rain 24hr in | rain mn in | humidity % | barometer mb |
| 20260502214550 | 71 | 151 | 6.0 | 12.0 | 0.00 | 0.02 | 0.00 | 47 | 1019.3 |
| 20260502213009 | 71 | 179 | 5.0 | 16.0 | 0.00 | 0.02 | 0.00 | 47 | 1019.5 |
| 20260502211523 | 71 | 179 | 5.0 | 13.0 | 0.00 | 0.02 | 0.00 | 51 | 1019.6 |
| 20260502210041 | 71 | 177 | 3.0 | 13.0 | 0.00 | 0.02 | 0.00 | 50 | 1019.9 |
| 20260502204602 | 71 | 162 | 5.0 | 11.0 | 0.00 | 0.14 | 0.00 | 47 | 1020.1 |
| 20260502203008 | 71 | 151 | 3.0 | 16.0 | 0.00 | 0.14 | 0.00 | 50 | 1020.2 |
| 20260502201538 | 70 | 166 | 5.0 | 13.0 | 0.00 | 0.14 | 0.00 | 49 | 1020.4 |
| 20260502200034 | 70 | 188 | 4.0 | 9.0 | 0.00 | 0.14 | 0.00 | 56 | 1020.5 |
| 20260502194547 | 69 | 153 | 5.0 | 10.0 | 0.00 | 0.15 | 0.00 | 55 | 1020.6 |
| 20260502193006 | 69 | 204 | 6.0 | 12.0 | 0.00 | 0.15 | 0.00 | 55 | 1020.7 |
| 20260502191506 | 69 | 147 | 5.0 | 12.0 | 0.00 | 0.15 | 0.00 | 57 | 1020.7 |
| 20260502190024 | 69 | 166 | 5.0 | 13.0 | 0.00 | 0.15 | 0.00 | 56 | 1020.8 |
| 20260502184549 | 69 | 159 | 5.0 | 14.0 | 0.00 | 0.16 | 0.00 | 59 | 1020.9 |
| 20260502183101 | 68 | 145 | 5.0 | 11.0 | 0.00 | 0.16 | 0.00 | 59 | 1021.0 |
| 20260502181521 | 68 | 154 | 5.0 | 16.0 | 0.00 | 0.16 | 0.00 | 57 | 1021.3 |
| 20260502163046 | 64 | 172 | 4.0 | 10.0 | 0.00 | 0.47 | 0.00 | 65 | 1022.5 |
| 20260502161603 | 63 | 155 | 5.0 | 10.0 | 0.00 | 0.47 | 0.00 | 65 | 1022.5 |
| 20260502151508 | 60 | 144 | 4.0 | 7.0 | 0.00 | 0.50 | 0.00 | 70 | 1022.1 |
| 20260502123100 | 51 | 159 | 3.0 | 8.0 | 0.00 | 0.72 | 0.00 | 86 | 1020.0 |
| 20260502121529 | 51 | 192 | 3.0 | 8.0 | 0.00 | 0.72 | 0.00 | 87 | 1019.7 |
| 20260502114603 | 50 | 195 | 3.0 | 8.0 | 0.00 | 1.18 | 0.00 | 87 | 1019.2 |
| 20260502113022 | 50 | 184 | 3.0 | 8.0 | 0.00 | 1.18 | 0.00 | 87 | 1019.1 |
| 20260502111538 | 51 | 224 | 3.0 | 7.0 | 0.00 | 1.18 | 0.00 | 88 | 1019.1 |
| 20260502110056 | 51 | 196 | 3.0 | 8.0 | 0.00 | 1.18 | 0.00 | 88 | 1019.0 |
| 20260502104521 | 51 | 150 | 4.0 | 9.0 | 0.00 | 1.26 | 0.00 | 88 | 1018.7 |
| 20260502103029 | 51 | 166 | 4.0 | 11.0 | 0.00 | 1.26 | 0.00 | 88 | 1018.6 |
| 20260502101604 | 51 | 183 | 3.0 | 7.0 | 0.00 | 1.26 | 0.00 | 88 | 1018.4 |
| 20260502071505 | 52 | 181 | 4.0 | 9.0 | 0.00 | 1.57 | 0.00 | 86 | 1017.0 |
| 20260502070038 | 53 | 108 | 5.0 | 11.0 | 0.00 | 1.57 | 0.00 | 86 | 1017.1 |
| 20260502064548 | 53 | 184 | 3.0 | 9.0 | 0.00 | 1.58 | 0.00 | 86 | 1017.2 |
| 20260502063127 | 53 | 167 | 3.0 | 8.0 | 0.00 | 1.58 | 0.00 | 85 | 1017.1 |
| 20260502061513 | 53 | 165 | 3.0 | 11.0 | 0.00 | 1.58 | 0.00 | 85 | 1017.1 |
| 20260502060038 | 53 | 169 | 4.0 | 9.0 | 0.00 | 1.58 | 0.00 | 85 | 1017.2 |
| 20260502054600 | 53 | 187 | 5.0 | 10.0 | 0.00 | 1.60 | 0.00 | 85 | 1016.8 |
| 20260502053004 | 54 | 176 | 6.0 | 18.0 | 0.00 | 1.60 | 0.00 | 84 | 1016.3 |
| 20260502051522 | 54 | 174 | 5.0 | 13.0 | 0.00 | 1.60 | 0.00 | 84 | 1016.6 |
| 20260502050041 | 54 | 185 | 5.0 | 18.0 | 0.00 | 1.60 | 0.00 | 84 | 1017.0 |
| 20260502044555 | 54 | 202 | 6.0 | 16.0 | 0.00 | 1.62 | 1.60 | 84 | 1016.7 |
| 20260502043015 | 54 | 338 | 5.0 | 14.0 | 0.00 | 1.62 | 1.60 | 84 | 1016.6 |
| 20260502041553 | 54 | 180 | 7.0 | 16.0 | 0.00 | 1.62 | 1.60 | 85 | 1016.7 |
| 20260502040053 | 54 | 162 | 5.0 | 12.0 | 0.00 | 1.62 | 1.60 | 86 | 1016.5 |
| 20260502034503 | 54 | 163 | 9.0 | 18.0 | 0.00 | 1.90 | 1.60 | 86 | 1016.5 |
| 20260502033156 | 55 | 184 | 8.0 | 16.0 | 0.00 | 1.90 | 1.60 | 86 | 1016.2 |
| 20260502031509 | 55 | 174 | 8.0 | 19.0 | 0.00 | 1.90 | 1.60 | 86 | 1016.0 |
| 20260502030038 | 56 | 184 | 6.0 | 17.0 | 0.00 | 1.90 | 1.60 | 86 | 1015.7 |
| 20260502024556 | 56 | 185 | 5.0 | 14.0 | 0.00 | 1.90 | 1.60 | 87 | 1015.4 |
| 20260502023003 | 56 | 166 | 4.0 | 14.0 | 0.00 | 1.90 | 1.60 | 86 | 1015.0 |
| 20260502021527 | 56 | 192 | 8.0 | 18.0 | 0.00 | 1.90 | 1.60 | 86 | 1014.8 |
| 20260502020041 | 56 | 165 | 6.0 | 17.0 | 0.00 | 1.90 | 1.60 | 86 | 1014.4 |
| 20260502014606 | 57 | 181 | 6.0 | 13.0 | 0.00 | 1.90 | 1.60 | 87 | 1014.5 |
| 20260502013011 | 57 | 148 | 5.0 | 16.0 | 0.00 | 1.90 | 1.60 | 87 | 1013.9 |
| 20260502011533 | 57 | 169 | 6.0 | 16.0 | 0.00 | 1.90 | 1.60 | 86 | 1013.6 |
| 20260502010040 | 58 | 182 | 9.0 | 17.0 | 0.00 | 1.90 | 1.60 | 86 | 1013.3 |
| 20260502004559 | 58 | 181 | 7.0 | 14.0 | 0.00 | 1.94 | 1.60 | 86 | 1013.0 |
| 20260502003013 | 58 | 158 | 7.0 | 14.0 | 0.00 | 1.94 | 1.60 | 85 | 1012.6 |
| 20260502001539 | 59 | 166 | 7.0 | 15.0 | 0.00 | 1.94 | 1.60 | 85 | 1012.5 |
| 20260502000059 | 59 | 142 | 7.0 | 14.0 | 0.00 | 1.94 | 1.60 | 86 | 1012.4 |
| 20260501234515 | 59 | 179 | 11.0 | 23.0 | 0.00 | 1.94 | 1.60 | 85 | 1012.1 |
| 20260501233029 | 60 | 172 | 8.0 | 16.0 | 0.00 | 1.94 | 1.60 | 86 | 1011.7 |
| 20260501231505 | 60 | 161 | 7.0 | 18.0 | 0.00 | 1.94 | 1.60 | 86 | 1011.4 |
| 20260501230116 | 60 | 123 | 7.0 | 19.0 | 0.00 | 1.94 | 1.60 | 86 | 1011.5 |
| 20260501224502 | 60 | 167 | 8.0 | 20.0 | 0.01 | 1.94 | 1.60 | 87 | 1011.6 |
| 20260501223023 | 60 | 168 | 9.0 | 16.0 | 0.01 | 1.94 | 1.60 | 88 | 1011.4 |
| 20260501221534 | 60 | 175 | 9.0 | 19.0 | 0.01 | 1.94 | 1.60 | 88 | 1010.9 |
| 20260501220039 | 60 | 147 | 8.0 | 17.0 | 0.02 | 1.94 | 1.60 | 88 | 1010.5 |